www.pogodaiklimat.ru

Погода и климат >> Архив погоды >> Финляндия >> Йоэнсуу


ПОГОДА в Йоэнсуу

  • Прогноз погоды в Йоэнсуу
  • Монитор погоды в Йоэнсуу

АРХИВ ПОГОДЫ в Йоэнсуу

Время (UTC), дата Ветер
(напр.,м/с)
 
Видим.   Явления Облачность Т
(С)
Тd
(С)
f
(%)
Тe
(С)
Тes
(С)
Комфортность P
(гПа)
Po
(гПа)
Тmin
(С)
Tmax
(С)
R
(мм)
R24
(мм)
S
(см)
15 13.09 40 км 1/1 600 м
[]
+11.5 +8.3 81 1004.6 994.6
18 13.09 45 км 3/3 1000 м
[]
+9.9 +7.5 85 1005.1 995.0 +9.7 +15.6 0.8
21 13.09 35 км ясно +7.9 +6.5 91 1004.7 994.6
00 14.09 50 км в посл. час морось 4/4 300 м
[]
+8.5 +6.0 84 1004.8 994.7
03 14.09 50 км 10/10 600 м
[]
+9.4 +6.3 81 1005.3 995.3
06 14.09 50 км 10/10 300 м
[]
+9.6 +5.9 78 1005.8 995.7 +7.6 +9.9
09 14.09 18 км ливневой дождь 9/9 600 м
[]
+9.0 +7.0 87 1007.1 997.0
12 14.09 45 км в посл. час дождь 9/9 1000 м
[]
+9.9 +4.8 71 1008.4 998.3
15 14.09 45 км ясно +10.5 +2.9 59 1009.2 999.2
18 14.09 35 км ясно +6.5 +3.8 83 1010.3 1000.0 +6.5 +11.9 2
21 14.09 40 км ясно +5.6 +4.3 91 1010.7 1000.4
00 15.09 18 км ясно +4.9 +3.8 93 1009.9 999.6
03 15.09 24 км 6/6 100 м
[]
+3.9 +2.9 93 1007.9 997.6
06 15.09 40 км 8/8 200 м
[]
+8.6 +6.2 85 1004.4 994.3 +3.0 +8.6
09 15.09 40 км 9/6 300 м
[]
+9.5 +5.9 78 999.9 989.9
12 15.09 20 км слаб. дождь 10/10 300 м
[]
+8.9 +6.3 84 994.1 984.2
15 15.09 8000 м слаб. дождь 10/10 300 м
[]
+7.6 +6.0 90 988.3 978.4
18 15.09 10 км слаб. дождь 10/10 200 м
[]
+7.8 +6.4 91 984.7 974.8 +7.5 +9.7 5
21 15.09 5000 м дождь 10/10 200 м
[]
+7.2 +5.9 91 982.8 972.8
00 16.09 7000 м слаб. дождь 10/10 200 м
[]
+6.8 +5.6 92 982.5 972.6
03 16.09 9000 м морось 10/10 200 м
[]
+7.0 +5.6 91 983.2 973.3
06 16.09 45 км слаб. морось 10/10 300 м
[]
+7.4 +5.7 89 984.8 974.9 +6.8 +7.8 15
09 16.09 40 км 10/10 600 м
[]
+8.2 +4.1 75 987.5 977.6
12 16.09 40 км 5/1 1000 м
[]
+10.4 +1.8 55 989.5 979.6
15 16.09 35 км 10/10 600 м
[]
+9.5 +3.8 68 991.1 981.2
18 16.09 23 км слаб. дождь 10/10 300 м
[]
+7.7 +5.1 84 992.1 982.1 +7.3 +10.9 0.1
21 16.09 9000 м морось 10/10 200 м
[]
+6.7 +5.4 91 992.5 982.4
00 17.09 13 км слаб. ливневой дождь 10/10 100 м
[]
+7.2 +6.0 92 992.8 982.8
03 17.09 10 км 9/9 300 м
[]
+7.4 +6.2 92 993.1 983.1
06 17.09 35 км в посл. час дождь 9/8 1000 м
[]
+7.8 +6.3 90 994.1 984.0 +6.6 +7.8 5
09 17.09 40 км 10/10 600 м
[]
+8.9 +4.0 71 995.4 985.4
12 17.09 40 км 10/10 600 м
[]
+9.3 +2.0 60 996.4 986.4
15 17.09 23 км слаб. дождь 10/10 1000 м
[]
+8.5 +4.1 74 997.4 987.4
18 17.09 40 км 6/6 1000 м
[]
+5.5 +3.5 87 998.6 988.5 +5.3 +10.3 0.2
21 17.09 45 км ясно +4.0 +2.4 89 999.7 989.5
00 18.09 50 км ясно +3.2 +1.6 89 1000.7 990.5
03 18.09 50 км 10/10 300 м
[]
+5.0 +2.7 85 1001.8 991.6
06 18.09 40 км 10/10 1500 м
[]
+5.9 +2.2 77 1003.4 993.2 +3.1 +6.1
09 18.09 35 км 6/6 1000 м
[]
+6.8 -1.4 56 1005.0 994.8
12 18.09 35 км 9/9 1000 м
[]
+7.9 -2.6 47 1006.2 996.1
15 18.09 40 км ясно +6.1 -0.1 64 1007.4 997.1
18 18.09 45 км ясно +3.1 -0.2 79 1009.0 998.7 +3.1 +8.6
21 18.09 45 км ясно +0.8 -1.1 87 1010.0 999.6
00 19.09 45 км 3/0
[]
-0.2 -1.7 90 1010.6 1000.2
03 19.09 23 км 6/0
[]
-1.5 -2.5 93 1011.0 1000.5
06 19.09 24 км 1/1
[]
+1.1 0.0 92 1011.6 1001.1 -1.6 +3.4
09 19.09 45 км 9/9
[]
+7.0 +0.4 63 1012.0 1001.8
12 19.09 45 км в посл. час дождь 10/10 1000 м
[]
+6.6 +2.6 76 1012.1 1001.9
15 19.09 15 км слаб. ливневой дождь 10/10 600 м
[]
+4.6 +2.6 87 1012.2 1001.9
18 19.09 40 км слаб. дождь 10/10 600 м
[]
+3.3 +1.9 91 1012.9 1002.6 +1.1 +7.8 2
21 19.09 45 км ясно +1.5 +0.3 92 1013.4 1002.9
00 20.09 40 км ясно +0.9 -0.2 92 1013.5 1003.0
03 20.09 40 км ясно +0.5 -0.4 94 1012.8 1002.3
06 20.09 45 км ясно +2.9 +1.2 89 1012.8 1002.4 -0.8 +3.3
09 20.09 40 км ясно +8.2 +2.9 69 1012.4 1002.2

 

Местоположение метеостанции Йоэнсуу (Финляндия): широта 62.60 долгота 29.72 высота над уровнем моря 119 м.

В архиве по умолчанию представлена погода в Йоэнсуу за последнюю неделю. Архивные данные за месяц целиком и за предыдущие месяцы, начиная с января 2011 года, Вы можете получить, выбрав интересующий диапазон дат из раскрывающегося списка и нажав кнопку "Ввод!".


*Определитесь, кто Вы:
робот инопланетянин человек

Внимание! Время в таблицах - всемирное. Для получения местного времени необходимо прибавить поправку, которая равна 1 ч.

Смотрите также архив погоды в соседних городах и на ближайших метеорологических станциях:

Погода в Липери Туискаванлуото (Финляндия) (6 км)
Погода в Йоэнсуу аэропорту (Финляндия) (9 км)
Погода в Тохмаярви (Финляндия) (52 км)
Погода в Мекриярви (Финляндия) (67 км)
Погода в Вяртсиле (Карелия, Россия) (68 км)
Погода в Юуке (Финляндия) (74 км)
Погода в Лиексе (Финляндия) (82 км)
Погода в Савонлинне (Финляндия) (83 км)
Погода в Рантасалми Руккаслю (Финляндия) (84 км)
Погода в Иломанци Поцонваара (Финляндия) (90 км)

Пояснения к столбцам:

Ветер - указаны скорость ветра в м/с - средняя за 10 мин, порывы в срок и между сроками (в фигурных скобках) и направление, откуда дует ветер: С - северный, СВ - северо-восточный, В - восточный, ЮВ - юго-восточный, Ю - южный, ЮЗ - юго-западный, З - западный, СЗ - северо-западный.
Видимость - горизонтальная дальность видимости в метрах или километрах. При видимости от 1 до 10 км при отсутствии осадков обычно наблюдается дымка, при ухудшении видимости до 1 км и менее - туман. В сухую погоду видимость может ухудшаться дымом, пылью или мглою.
Явления - указаны атмосферные явления, наблюдавшиеся в срок или в последний час перед сроком; фигурными скобками обозначены явления, наблюдавшиеся между сроками (за 1-3 часа до срока); квадратными скобками обозначены град или гололедные отложения с указанием их диаметра в мм.
Облачность - указаны через наклонную черту общая и нижняя облачность в баллах и высота нижней границы облаков в метрах; квадратными скобками обозначены формы облаков: Ci - перистые, Cs - перисто-слоистые, Cc - перисто-кучевые, Ac - высококучевые, As - высокослоистые, Sc - слоисто-кучевые, Ns - слоисто-дождевые, Cu - кучевые, Cb - кучево-дождевые. Подробнее классификацию облаков см. в Атласе облаков (PDF).
T - Температура воздуха - температура, измеренная на высоте 2 м над землей.
Td - Температура точки росы - температура, при понижении до которой содержащийся в воздухе водяной пар достигнет насыщения.
f - Относительная влажность воздуха - влажноcть воздуха, измеренная на высоте 2 м над землей.
Te - Эффективная температура - температура, которую ощущает одетый по сезону человек в тени. Характеристика душности погоды. При расчете учитывается влияние влажности воздуха и скорости ветра на теплоощущения человека.
Tes - Эффективная температура на солнце - температура, которую ощущает человек, с поправкой на солнечный нагрев. Характеристика знойности погоды. Зависит от высоты солнца над горизонтом, облачности и скорости ветра. Ночью, в пасмурную погоду, а также при ветре 12 м/с и более поправка равна нулю.
P - Атмосферное давление - приведенное к уровню моря атмосферное давление.
Po - Атмосферное давление - измеренное на уровне метеостанции атмосферное давление.
Tmin - Минимальная температура - минимум температуры воздуха на высоте 2 м над землей.
Tmax - Максимальная температура - максимум температуры воздуха на высоте 2 м над землей.
R - Количество осадков - Количество выпавших осадков за период времени, мм. При наведении курсора мыши на число - период времени, за который выпало указанное количество осадков.
R24 - Количество осадков - Количество выпавших осадков за 24 часа, мм.
S - Снежный покров - Высота снежного покрова, см. При наведении курсора мыши на число - состояние снежного покрова и степень покрытия местности в баллах.